Simultaneous Nadir Overpasses (SNOs) Predictions

Prediction of SNOs between GOES-15 and METOP-C Satellite Orbit:

Table of predicted SNOs for the next 14.0 days since TLE Epoch: 3/2/2024
Index Date Time (GOES-15) GOES-15 Lat,Lon METOP-C Lat,Lon Distance(km) Time Diff (sec)
1 03/02/2024 17:06:48 -0.01, 61.27 0.90, 65.22 450.58 80
2 03/04/2024 05:25:39 0.00, 61.29 0.13, 60.66 70.85 80
3 03/05/2024 05:07:39 0.00, 61.28 -0.98, 65.66 498.63 80
4 03/06/2024 17:26:40 0.00, 61.26 -0.07, 61.06 23.26 80
5 03/09/2024 05:24:53 -0.00, 61.29 -0.07, 61.49 23.04 80
6 03/10/2024 17:43:53 0.01, 61.26 -0.96, 56.89 497.75 80
7 03/11/2024 17:20:33 -0.00, 61.27 0.16, 61.88 71.01 80
8 03/13/2024 05:39:25 -0.00, 61.31 0.88, 57.33 453.32 80
9 03/14/2024 05:21:25 -0.00, 61.31 -0.24, 62.32 115.56 80
10 03/15/2024 17:40:26 0.01, 61.28 -0.76, 57.72 405.34 80
